Location: Newark
(35.2672°N, 80.7344°W)
Time: 10:30:09
(UTC+00:00)

A-11 Canister half - Pass Details

Date: 27 January 2020
Orbit: 1524 x 1684 km, 47.3° (Epoch: 19 February)

Event Time Altitude Azimuth Distance (km) Brightness Sun altitude
Rises 04:02:12 0° 303° (WNW) 4,749 12.0 -63.5°
Reaches altitude 10° 04:05:16 10° 306° (NW) 3,784 11.3 -64.0°
Enters shadow 04:05:26 11° 306° (NW) 3,731 11.3 -64.0°
